{"data":{"norad_id":65079,"intl_designator":"2025-167B","name":"STARLINK-34634","alt_names":[],"object_type":"PAYLOAD","status":"ACTIVE","operator":null,"country":"US","launch_date":"2025-08-04","launch_site_code":"AFETR","launch_vehicle":null,"mission":null,"orbit_class":"UNKNOWN","rcs_meters":null,"size_class":null,"mass_kg":null,"dimensions":null,"purposes":["comms"],"wikipedia_slug":null,"has_3d_model":false,"image_url":null,"decayed_at":null,"tle_current":{"epoch":"2026-09-20T22:22:46.121664Z","epoch_age_seconds":82850,"freshness":"FRESH","line1":"1 65079U 25167B   26263.93247826  .00020863  00000+0  62599-3 0  9990","line2":"2 65079  53.1580 193.3555 0001147  91.1265 268.9869 15.34445022 63466","mean_motion":15.34445022,"eccentricity":0.0001147,"inclination_deg":53.158,"raan_deg":193.3555,"arg_perigee_deg":91.1265,"mean_anomaly_deg":268.9869,"bstar":0.00062599,"rev_number":6346,"period_min":93.845004503524,"perigee_km":461.78479957967,"apogee_km":463.35405763439,"semimajor_km":6840.706428607,"source":"CELESTRAK","updated_at":"2026-09-21T09:00:35.520779Z"}}}